Location: Wingville
(42.9917°N, 90.4915°W)
Time: 20:54:54
(UTC+00:00)

EO-79 - Pass Details

Date: 28 June 2022
Orbit: 588 x 603 km, 98.0° (Epoch: 11 August)

Event Time Altitude Azimuth Distance (km) Brightness Sun altitude
Rises 06:55:04 0° 26° (NNE) 2,851 ? -22.7°
Reaches altitude 10° 06:57:36 10° 40° (NE) 1,946 ? -22.6°
Maximum altitude 07:01:02 24° 95° (E) 1,265 ? -22.5°
Enters shadow 07:01:53 22° 113° (ESE) 1,316 ? -22.5°
